[[{"header":{"parameterUnit":"m.s-1","parameterCategory":1,"la1":30.2991,"la2":30.254,"lo1":-89.0895,"lo2":-89.0444,"dy":0.0017,"dx":0.0017,"nx":28,"ny":28,"refTime":"2024-08-22T03:00:00:Z","depth":0,"parameterNumber":2,"parameterNumberName":"U-component_of_WINDS"},"data":[0,0,0,0,0,0,0,0,0,0,0,0,0,0,0,0,0,0,0,0,0,0,0,0,0,0,0,0,0,0,0,0,0,0,0,0,0,0,0,0,0,0,0,0,0,0,0,0,0,0,0,0,0,0,0,0,0,0,-0.0664,-0.0663,0,-0.0552,-0.0551,-0.055,-0.0535,-0.0536,-0.0537,-0.0538,-0.0418,-0.0414,-0.041,0,0,0,0,0,0,0,0,0,0,0,0,0,-0.086,-0.0856,-0.0664,-0.0663,-0.0661,-0.0553,-0.0551,-0.055,-0.0534,-0.0536,-0.0537,-0.0538,-0.0419,-0.0414,-0.0409,0,0,0,0,0,0,0,0,0,0,0,0,0,-0.0764,-0.0855,-0.0664,-0.0641,-0.0638,-0.0553,-0.0551,-0.0549,-0.0534,-0.0536,-0.0537,-0.0539,-0.0421,-0.0415,-0.0409,-0.0338,0,0,-0.0389,-0.0387,0,0,0,0,0,0,0,0,-0.077,-0.0757,-0.0646,-0.0642,-0.0639,-0.0559,-0.0576,-0.0478,-0.0534,-0.0573,-0.0538,-0.054,-0.0463,-0.0454,-0.0429,-0.0332,-0.0327,-0.0389,-0.0385,-0.0382,-0.0381,0,0,0,0,0,0,0,-0.0776,-0.0762,-0.062,-0.0644,-0.064,-0.0634,-0.0623,-0.0557,-0.051,-0.057,-0.0569,-0.0556,-0.0462,-0.0435,-0.0426,-0.0325,-0.0389,-0.0384,-0.038,-0.0377,-0.0166,-0.0165,0,0,0,0,0,0,-0.0788,-0.0767,-0.0623,-0.0616,-0.071,-0.063,-0.0616,-0.0583,-0.0511,-0.0502,-0.0555,-0.0556,-0.0445,-0.0433,-0.0422,-0.0335,-0.0382,-0.0377,-0.0373,-0.0168,-0.0166,-0.0164,0,0,0,0,0,0,-0.0792,-0.0775,-0.0628,-0.0691,-0.0672,-0.0625,-0.0587,-0.058,-0.0553,-0.05,-0.0491,-0.0537,-0.0446,-0.0431,-0.036,-0.0331,-0.0374,-0.0368,-0.017,-0.0167,-0.0165,-0.0161,0,0,0,0,0,0,-0.0798,-0.0777,-0.075,-0.0691,-0.0669,-0.0569,-0.0585,-0.0577,-0.0543,-0.0544,-0.048,-0.0471,-0.0446,-0.0369,-0.0353,-0.0323,-0.0363,-0.0173,-0.0169,-0.0166,-0.0163,-0.0158,-0.0154,0,0,0,0,0,-0.0805,-0.0752,-0.0749,-0.0732,-0.0635,-0.0567,-0.0554,-0.0528,-0.0541,-0.0513,-0.0479,-0.0473,-0.0337,-0.0362,-0.0344,-0.0311,-0.0174,-0.017,-0.0166,-0.0165,-0.0159,-0.0154,0,0,0,0,0,0,-0.0807,-0.0744,-0.074,-0.0666,-0.0623,-0.0565,-0.0529,-0.0522,-0.0471,-0.0474,-0.0441,-0.0427,-0.0358,-0.0327,-0.0356,-0.024,-0.0256,-0.0249,-0.0262,-0.0256,-0.0251,-0.026,-0.0358,0,0,0,0,0,-0.0799,-0.075,-0.0697,-0.0638,-0.0616,-0.0577,-0.0546,-0.053,-0.0482,-0.0462,-0.0423,-0.0376,-0.0322,-0.0287,-0.0235,-0.0159,-0.0145,-0.0128,-0.0123,-0.012,-0.0113,-0.0071,-0.0063,-0.015,-0.015,-0.015,0,0,-0.0782,-0.0741,-0.0712,-0.0637,-0.0601,-0.0551,-0.0561,-0.0506,-0.0468,-0.0453,-0.0385,-0.0354,-0.0299,-0.0226,-0.0192,-0.0198,-0.0086,-0.0114,-0.0112,-0.0107,-0.0066,-0.0058,-0.0051,-0.0148,-0.0148,-0.0149,0,0,-0.0724,-0.0689,-0.0636,-0.0601,-0.0547,-0.0521,-0.0509,-0.0452,-0.0432,-0.0363,-0.0352,-0.0305,-0.0213,-0.0175,-0.0144,-0.0074,-0.0067,-0.0058,-0.0033,0.0007,0.0014,0.002,0.0044,0.0053,-0.0052,-0.0052,-0.0051,0,-0.0709,-0.0634,-0.0609,-0.0556,-0.0524,-0.0511,-0.0456,-0.0422,-0.0353,-0.0331,-0.034,-0.0226,-0.0188,-0.0106,-0.009,-0.0064,-0.0048,-0.0064,0.001,0.0017,0.0023,0.0047,0.0056,-0.0051,-0.0051,-0.0051,-0.0051,0,-0.0618,-0.0566,-0.053,-0.0466,-0.043,-0.0376,-0.0342,-0.0308,-0.0295,-0.0268,-0.0198,-0.0153,-0.0092,-0.0071,-0.0057,0.0013,0.0007,0.0004,-0.0013,0.0032,0.0054,0.0064,-0.005,-0.005,-0.005,-0.005,0,0,-0.0558,-0.0483,-0.047,-0.0442,-0.0382,-0.0341,-0.0287,-0.0229,-0.02,-0.0154,-0.0107,-0.0031,-0.0034,0.0001,0.002,0.0055,0.0106,0.0047,0.0049,0.0056,0.0185,0.0187,0.0197,0.011,0.0112,0.0114,0.018,0,-0.0494,-0.0399,-0.0376,-0.0294,-0.0246,-0.0234,-0.0187,-0.0145,-0.0118,-0.0073,-0.0043,0.001,0.0002,0.0023,0.0059,0.0092,0.0132,0.0088,0.0155,0.0157,0.0141,0.0209,0.0211,0.0272,0.0189,0.0191,0.0192,0,-0.0406,-0.0361,-0.0275,-0.0223,-0.0202,-0.016,-0.0106,-0.0063,-0.0015,0.0002,0.004,0.0054,0.0112,0.0092,0.0171,0.0141,0.0169,0.019,0.0193,0.0201,0.0177,0.0218,0.0292,0.0301,0.0206,0.0205,0.0204,0,-0.0372,-0.0288,-0.0226,-0.0202,-0.014,-0.0111,-0.0084,-0.0038,-0.0005,0.0043,0.0064,0.0119,0.0149,0.0191,0.0219,0.0202,0.0297,0.0279,0.0313,0.0312,0.0333,0.0331,0.0412,0.0351,0.0351,0.0351,0.035,0,-0.0303,-0.0251,-0.021,-0.0172,-0.0113,-0.0087,-0.0029,-0.0001,0.0039,0.0083,0.0098,0.014,0.0175,0.0221,0.0244,0.0306,0.032,0.0336,0.0341,0.0334,0.0332,0.0354,0.0351,0.0353,0.0352,0.0352,0.0352,0,-0.0254,-0.0224,-0.0156,-0.0104,-0.009,-0.0049,-0.0004,0.0034,0.006,0.0116,0.013,0.0172,0.0227,0.0259,0.033,0.0345,0.0414,0.0418,0.0397,0.04,0.0431,0.0427,0.0529,0.0543,0.0473,0.0473,0.0474,0,-0.0212,-0.0172,-0.0116,-0.0087,-0.0059,-0.0011,0.0021,0.0049,0.0082,0.0139,0.017,0.0226,0.0272,0.036,0.0397,0.045,0.0455,0.0487,0.0464,0.0455,0.0456,0.0453,0.0457,0.0491,0.0492,0.0492,0.0493,0,-0.0141,-0.0129,-0.0083,-0.0032,0.0006,0.0047,0.0089,0.0113,0.0147,0.0184,0.024,0.0275,0.0346,0.0401,0.0457,0.0487,0.0496,0.05,0.051,0.0504,0.049,0.0497,0.0408,0.0497,0.0497,0.0497,0.0496,0.0496,-0.0094,-0.0058,-0.0014,0.0036,0.0069,0.0107,0.0145,0.0174,0.0221,0.0279,0.0293,0.0351,0.0397,0.0473,0.0504,0.0551,0.0545,0.0561,0.0565,0.0568,0.0568,0.0482,0.0561,0.0561,0.0561,0.0561,0.0561,0,-0.0023,0.0006,0.0052,0.0108,0.0148,0.015,0.0196,0.0229,0.028,0.0321,0.0365,0.0429,0.0482,0.0522,0.0577,0.0606,0.0611,0.0619,0.0618,0.0624,0.057,0.0556,0.0614,0.0614,0.0614,0.0614,0.0614,0.0614,0.0019,0.0079,0.0096,0.0173,0.0201,0.0257,0.0283,0.0318,0.0351,0.0421,0.0464,0.0489,0.053,0.0587,0.0636,0.0647,0.0666,0.0673,0.0685,0.0634,0.0628,0.0623,0.0609,0.0677,0.0678,0.0734,0.0735,0.0735]},{"header":{"parameterUnit":"m.s-1","parameterCategory":1,"la1":30.2991,"la2":30.254,"lo1":-89.0895,"lo2":-89.0444,"dy":0.0017,"dx":0.0017,"nx":28,"ny":28,"refTime":"2024-08-22T03:00:00:Z","depth":0,"parameterNumber":3,"parameterNumberName":"V-component_of_WINDS"},"data":[0,0,0,0,0,0,0,0,0,0,0,0,0,0,0,0,0,0,0,0,0,0,0,0,0,0,0,0,0,0,0,0,0,0,0,0,0,0,0,0,0,0,0,0,0,0,0,0,0,0,0,0,0,0,0,0,0,0,1.5832,1.5832,0,1.5858,1.5859,1.5859,1.5811,1.581,1.5808,1.5806,1.5836,1.5838,1.584,0,0,0,0,0,0,0,0,0,0,0,0,0,1.574,1.5742,1.5832,1.5832,1.5832,1.5858,1.5859,1.5859,1.5811,1.581,1.5808,1.5806,1.5835,1.5838,1.584,0,0,0,0,0,0,0,0,0,0,0,0,0,1.5774,1.5742,1.5832,1.5812,1.581,1.5858,1.5859,1.5859,1.5812,1.5809,1.5807,1.5805,1.5834,1.5837,1.5841,1.591,0,0,1.5851,1.5853,0,0,0,0,0,0,0,0,1.5772,1.5778,1.5814,1.5813,1.5811,1.5829,1.5837,1.5876,1.5813,1.5811,1.5806,1.5804,1.5836,1.5839,1.5849,1.5912,1.5913,1.5852,1.5854,1.5855,1.5856,0,0,0,0,0,0,0,1.577,1.5776,1.5842,1.5815,1.5813,1.5801,1.5804,1.5844,1.5837,1.5811,1.5808,1.5812,1.5834,1.5846,1.5849,1.5913,1.5851,1.5855,1.5857,1.5858,1.6031,1.6033,0,0,0,0,0,0,1.577,1.5775,1.5841,1.5843,1.5786,1.5805,1.5808,1.5826,1.5836,1.5835,1.5814,1.5809,1.5841,1.5845,1.585,1.593,1.5855,1.5858,1.586,1.6029,1.6032,1.6034,0,0,0,0,0,0,1.5768,1.5776,1.584,1.5808,1.5815,1.5809,1.583,1.5828,1.5839,1.5838,1.5836,1.5827,1.584,1.5845,1.5895,1.593,1.586,1.5863,1.6025,1.6029,1.6033,1.6092,0,0,0,0,0,0,1.5766,1.5776,1.5803,1.5809,1.5817,1.5885,1.5832,1.583,1.5845,1.5839,1.585,1.5849,1.5838,1.589,1.5898,1.5934,1.5866,1.6022,1.6027,1.6032,1.6086,1.6097,1.6106,0,0,0,0,0,1.5763,1.5819,1.5804,1.5813,1.585,1.5887,1.5892,1.5877,1.5848,1.5874,1.5873,1.5849,1.5925,1.5895,1.5904,1.5942,1.602,1.6026,1.6031,1.6082,1.6095,1.6106,0,0,0,0,0,0,1.5819,1.582,1.5803,1.5863,1.5875,1.5879,1.5912,1.5892,1.5913,1.5907,1.5888,1.5891,1.5944,1.5948,1.5914,1.6008,1.5968,1.5976,1.6003,1.6015,1.6025,1.6022,1.5868,0,0,0,0,0,1.5838,1.5867,1.5867,1.592,1.5927,1.5918,1.5934,1.5921,1.5933,1.5938,1.5941,1.5954,1.598,1.5998,1.6023,1.6087,1.6087,1.6117,1.6126,1.6134,1.6141,1.6173,1.6185,1.6053,1.6053,1.6053,0,0,1.5878,1.5882,1.5902,1.5931,1.5939,1.5969,1.5923,1.5958,1.598,1.5944,1.599,1.5992,1.6005,1.6061,1.6086,1.6066,1.6177,1.6142,1.6148,1.615,1.618,1.6192,1.6203,1.6057,1.6056,1.6056,0,0,1.5967,1.5974,1.6017,1.6025,1.6037,1.603,1.6041,1.6047,1.6047,1.6092,1.6065,1.6091,1.6138,1.6147,1.6158,1.6248,1.6226,1.6257,1.6307,1.6338,1.6348,1.6358,1.6387,1.6399,1.6263,1.6263,1.6264,0,1.6016,1.606,1.6042,1.6078,1.6091,1.6058,1.6101,1.611,1.613,1.6139,1.6117,1.6173,1.6179,1.6236,1.6257,1.6268,1.6279,1.6255,1.6348,1.6357,1.6365,1.6394,1.6405,1.6267,1.6267,1.6266,1.6266,0,1.6118,1.6149,1.6183,1.6201,1.6218,1.6258,1.6245,1.6264,1.625,1.6246,1.6291,1.6298,1.6322,1.6335,1.6322,1.6389,1.6376,1.6351,1.631,1.6382,1.6408,1.6419,1.6272,1.6271,1.627,1.6269,0,0,1.6244,1.6249,1.6262,1.6268,1.6277,1.6301,1.6339,1.6361,1.6377,1.6391,1.6421,1.646,1.6436,1.6449,1.6437,1.6464,1.6532,1.6436,1.6436,1.6452,1.6604,1.6621,1.6634,1.6517,1.6519,1.6521,1.6602,0,1.633,1.6393,1.6377,1.644,1.6468,1.6436,1.6468,1.6477,1.6474,1.6497,1.6493,1.652,1.6488,1.6495,1.6521,1.6518,1.6562,1.6512,1.6544,1.6546,1.654,1.6648,1.6667,1.6743,1.6612,1.6614,1.6615,0,1.6439,1.6455,1.652,1.6522,1.6533,1.6563,1.658,1.6603,1.6612,1.6607,1.662,1.6602,1.6638,1.6597,1.6646,1.6613,1.6625,1.6625,1.6628,1.6629,1.6584,1.6651,1.6767,1.6778,1.6632,1.663,1.6629,0,1.6521,1.656,1.6603,1.661,1.6614,1.6635,1.6638,1.6644,1.6658,1.6673,1.6682,1.6702,1.6713,1.6729,1.6716,1.6688,1.6766,1.6725,1.6763,1.6763,1.678,1.6779,1.6898,1.6791,1.679,1.679,1.679,0,1.6619,1.6659,1.6639,1.6666,1.671,1.6691,1.6735,1.6734,1.674,1.6765,1.674,1.6764,1.6746,1.6769,1.6759,1.68,1.6806,1.6802,1.6799,1.6804,1.6804,1.681,1.6804,1.6793,1.6793,1.6792,1.6791,0,1.6718,1.6706,1.6751,1.675,1.6751,1.6783,1.6782,1.6807,1.6801,1.6833,1.6839,1.683,1.6855,1.6844,1.6872,1.6865,1.6916,1.6907,1.6913,1.691,1.6947,1.6943,1.7074,1.7089,1.6973,1.6974,1.6975,0,1.678,1.681,1.6811,1.6826,1.683,1.6854,1.6866,1.6849,1.6863,1.6874,1.6897,1.6919,1.6936,1.6978,1.6974,1.6994,1.6983,1.7028,1.6986,1.6989,1.6982,1.6979,1.6981,1.7036,1.7037,1.7038,1.7039,0,1.689,1.6882,1.6901,1.6918,1.6933,1.6946,1.6956,1.697,1.6952,1.697,1.6994,1.7007,1.7033,1.7056,1.7073,1.7075,1.7054,1.7052,1.7062,1.7066,1.7067,1.7065,1.6933,1.7049,1.7048,1.7048,1.7047,1.7047,1.6971,1.6995,1.6999,1.702,1.7026,1.7036,1.7057,1.7053,1.7073,1.7092,1.708,1.7108,1.7115,1.7135,1.714,1.7162,1.7144,1.7159,1.7162,1.7165,1.7169,1.7065,1.7165,1.7165,1.7165,1.7164,1.7164,0,1.7078,1.7078,1.7098,1.7112,1.7129,1.7106,1.7116,1.7131,1.7156,1.7163,1.718,1.7207,1.7227,1.7224,1.7243,1.7261,1.7251,1.7266,1.7264,1.7264,1.7185,1.7174,1.7273,1.7273,1.7273,1.7273,1.7273,1.7273,1.7135,1.7174,1.7166,1.7207,1.7207,1.7233,1.724,1.7249,1.7254,1.7285,1.7301,1.7298,1.7301,1.7319,1.7337,1.7335,1.7343,1.7361,1.7356,1.7281,1.727,1.726,1.7249,1.7363,1.7363,1.7433,1.7434,1.7434]}]]